[[{"header":{"parameterUnit":"m.s-1","parameterCategory":2,"la1":30.2991,"la2":30.254,"lo1":-89.0895,"lo2":-89.0444,"dy":0.0017,"dx":0.0017,"nx":28,"ny":28,"refTime":"2024-04-23T09:00:00:Z","depth":"0","parameterNumber":2,"parameterNumberName":"U-component_of_CURRENTS"},"data":[0,0,0,0,0,0,0,0,0,0,0,0,0,0,0,0,0,0,0,0,0,0,0,0,0,0,0,0,0,0,0,0,0,0,0,0,0,0,0,0,0,0,0,0,0,0,0,0,0,0,0,0,0,0,0,0,0,0,0.1729,0.173,0,0.1726,0.1726,0.1726,0.1732,0.1732,0.1733,0.1733,0.171,0.1709,0.1708,0,0,0,0,0,0,0,0,0,0,0,0,0,0.1758,0.1757,0.1729,0.173,0.173,0.1726,0.1726,0.1726,0.1732,0.1732,0.1733,0.1733,0.171,0.1709,0.1708,0,0,0,0,0,0,0,0,0,0,0,0,0,0.1747,0.1757,0.1729,0.1734,0.1734,0.1726,0.1726,0.1726,0.1732,0.1732,0.1733,0.1733,0.171,0.1709,0.1707,0.1686,0,0,0.1703,0.1702,0,0,0,0,0,0,0,0,0.1748,0.1746,0.1733,0.1734,0.1734,0.1732,0.1728,0.1712,0.1731,0.173,0.1733,0.1734,0.1716,0.1714,0.1709,0.1685,0.1684,0.1703,0.1702,0.1701,0.1701,0,0,0,0,0,0,0,0.1748,0.1746,0.1726,0.1733,0.1734,0.1742,0.1741,0.1725,0.1718,0.1731,0.1732,0.1734,0.1716,0.1711,0.1709,0.1684,0.1703,0.1701,0.1701,0.17,0.1729,0.173,0,0,0,0,0,0,0.1751,0.1747,0.1726,0.1726,0.1745,0.1741,0.174,0.173,0.1719,0.1718,0.1734,0.1735,0.1713,0.1711,0.1708,0.1743,0.1701,0.17,0.1699,0.1727,0.1729,0.1731,0,0,0,0,0,0,0.1752,0.1749,0.1726,0.1739,0.1737,0.174,0.1729,0.173,0.1732,0.1722,0.1721,0.1736,0.1714,0.171,0.1716,0.1739,0.1699,0.1698,0.1725,0.1728,0.173,0.1772,0,0,0,0,0,0,0.1752,0.1749,0.1745,0.1739,0.1736,0.1729,0.1729,0.1729,0.1733,0.1734,0.1723,0.1721,0.1714,0.1718,0.1715,0.1737,0.1697,0.1723,0.1726,0.1729,0.1769,0.1776,0.1782,0,0,0,0,0,0.1753,0.1732,0.1744,0.1743,0.173,0.173,0.1729,0.1733,0.1733,0.1735,0.1739,0.1722,0.1736,0.1718,0.1713,0.1735,0.1721,0.1725,0.1729,0.1766,0.1775,0.1782,0,0,0,0,0,0,0.1733,0.1731,0.1744,0.1723,0.1736,0.1732,0.1726,0.1734,0.1737,0.1736,0.173,0.1728,0.1748,0.1736,0.1716,0.1757,0.1731,0.1734,0.1761,0.1769,0.1775,0.1793,0.1695,0,0,0,0,0,0.1732,0.1721,0.1731,0.1717,0.172,0.1727,0.1728,0.1735,0.1736,0.1737,0.1737,0.1743,0.1757,0.1758,0.1762,0.1769,0.1826,0.1787,0.1794,0.1799,0.1813,0.1895,0.191,0.1743,0.1743,0.1743,0,0,0.172,0.1719,0.1713,0.1715,0.1718,0.1733,0.1728,0.1727,0.175,0.1733,0.1754,0.176,0.1765,0.1788,0.1795,0.178,0.1893,0.1804,0.1808,0.1819,0.19,0.1917,0.1931,0.1745,0.1745,0.1745,0,0,0.1702,0.1692,0.1689,0.1704,0.1719,0.1727,0.1732,0.174,0.1752,0.1771,0.1781,0.1806,0.1804,0.1831,0.1841,0.1884,0.1925,0.1884,0.1926,0.2005,0.202,0.2033,0.2195,0.2222,0.1886,0.1886,0.1886,0,0.1695,0.1695,0.169,0.1704,0.1721,0.1729,0.1749,0.176,0.1777,0.1797,0.1784,0.1838,0.1832,0.1891,0.1911,0.1899,0.1978,0.189,0.2015,0.2028,0.2041,0.2203,0.2233,0.1888,0.1888,0.1888,0.1888,0,0.1688,0.17,0.1695,0.1725,0.174,0.175,0.1778,0.1796,0.1809,0.1832,0.1886,0.1896,0.194,0.194,0.1933,0.2026,0.207,0.2014,0.1993,0.2061,0.2228,0.2258,0.1892,0.1891,0.189,0.189,0,0,0.165,0.1687,0.169,0.1721,0.1756,0.1767,0.1805,0.1849,0.189,0.191,0.1981,0.2001,0.2023,0.2038,0.2048,0.2103,0.2274,0.2099,0.2102,0.2262,0.253,0.2603,0.2644,0.2236,0.2239,0.2242,0.2636,0,0.1657,0.1691,0.1709,0.1756,0.178,0.181,0.1852,0.1894,0.193,0.1999,0.2033,0.2102,0.2059,0.2103,0.215,0.2244,0.2344,0.2178,0.244,0.245,0.2504,0.2675,0.2635,0.2983,0.2665,0.267,0.2674,0,0.1653,0.1683,0.1726,0.1792,0.1805,0.1835,0.191,0.1951,0.204,0.208,0.2152,0.2196,0.232,0.2251,0.2471,0.2372,0.2466,0.2524,0.254,0.2607,0.2576,0.2851,0.305,0.2929,0.272,0.2716,0.2713,0,0.164,0.1696,0.1733,0.1755,0.1826,0.1855,0.1894,0.1972,0.2039,0.2158,0.2246,0.2355,0.2474,0.2565,0.2709,0.2609,0.2964,0.2839,0.3011,0.3021,0.3039,0.3043,0.3145,0.3004,0.3003,0.3002,0.3001,0,0.1648,0.1677,0.1729,0.1754,0.181,0.1857,0.1937,0.1988,0.2113,0.2239,0.2301,0.2454,0.2553,0.2754,0.2817,0.307,0.3077,0.3091,0.3134,0.3061,0.3062,0.2994,0.2896,0.3017,0.3014,0.3011,0.3008,0,0.1657,0.1669,0.1731,0.1802,0.1806,0.1862,0.1966,0.2066,0.2155,0.2337,0.2404,0.261,0.2888,0.3026,0.3254,0.327,0.3384,0.3526,0.3486,0.3514,0.3483,0.339,0.3462,0.336,0.3782,0.3786,0.3789,0,0.169,0.1715,0.177,0.1814,0.185,0.1918,0.1997,0.2079,0.2207,0.2447,0.2578,0.2877,0.3092,0.3492,0.3623,0.385,0.3623,0.3905,0.3661,0.355,0.3477,0.3253,0.3141,0.3751,0.3754,0.3756,0.3758,0,0.1785,0.1785,0.1838,0.1906,0.1977,0.2047,0.2156,0.2229,0.2385,0.2541,0.2793,0.2966,0.3387,0.3611,0.3913,0.4005,0.3712,0.396,0.3835,0.3484,0.3259,0.3157,0.3472,0.3779,0.3777,0.3776,0.3775,0.3774,0.1881,0.1927,0.1972,0.2028,0.2103,0.2163,0.2186,0.2332,0.247,0.2651,0.2874,0.3096,0.3473,0.3887,0.3975,0.4075,0.3917,0.3945,0.387,0.3674,0.3466,0.3878,0.4203,0.4203,0.4203,0.4203,0.4204,0,0.1989,0.2009,0.2098,0.2132,0.2198,0.2204,0.2298,0.2312,0.2423,0.2658,0.2834,0.3231,0.351,0.3767,0.4051,0.3975,0.3735,0.3862,0.3493,0.3401,0.3808,0.3688,0.3925,0.3925,0.3925,0.3925,0.3925,0.3925,0.2052,0.2107,0.2112,0.218,0.2208,0.2217,0.2226,0.2253,0.2361,0.2563,0.2771,0.298,0.3414,0.3794,0.3867,0.3797,0.345,0.3383,0.3259,0.3497,0.3494,0.349,0.3353,0.3515,0.3515,0.2735,0.2729,0.2724]},{"header":{"parameterUnit":"m.s-1","parameterCategory":2,"la1":30.2991,"la2":30.254,"lo1":-89.0895,"lo2":-89.0444,"dy":0.0017,"dx":0.0017,"nx":28,"ny":28,"refTime":"2024-04-23T09:00:00:Z","depth":"0","parameterNumber":3,"parameterNumberName":"V-component_of_CURRENTS"},"data":[0,0,0,0,0,0,0,0,0,0,0,0,0,0,0,0,0,0,0,0,0,0,0,0,0,0,0,0,0,0,0,0,0,0,0,0,0,0,0,0,0,0,0,0,0,0,0,0,0,0,0,0,0,0,0,0,0,0,0.0075,0.0075,0,0.0141,0.0143,0.0144,0.0179,0.0178,0.0177,0.0176,0.0112,0.0112,0.0111,0,0,0,0,0,0,0,0,0,0,0,0,0,0.0112,0.0111,0.0075,0.0075,0.0075,0.0141,0.0143,0.0145,0.0179,0.0178,0.0177,0.0176,0.0113,0.0112,0.0111,0,0,0,0,0,0,0,0,0,0,0,0,0,0.0139,0.0111,0.0075,0.0092,0.0093,0.014,0.0143,0.0145,0.0179,0.0178,0.0176,0.0175,0.0113,0.0112,0.0111,0.0132,0,0,0.0107,0.0106,0,0,0,0,0,0,0,0,0.0137,0.0139,0.0089,0.009,0.0092,0.0141,0.0132,0.013,0.0179,0.0158,0.0176,0.0174,0.0104,0.0103,0.0136,0.0129,0.0126,0.0107,0.0106,0.0106,0.0105,0,0,0,0,0,0,0,0.0135,0.0137,0.0112,0.0089,0.0091,0.0141,0.0143,0.0134,0.0144,0.016,0.016,0.015,0.0105,0.0138,0.0134,0.0125,0.0107,0.0106,0.0105,0.0105,0.0058,0.0057,0,0,0,0,0,0,0.01,0.0134,0.011,0.0113,0.0099,0.014,0.0143,0.0135,0.0147,0.0145,0.0151,0.0151,0.014,0.0136,0.0132,0.0112,0.0106,0.0104,0.0104,0.0058,0.0057,0.0057,0,0,0,0,0,0,0.01,0.0097,0.0107,0.0117,0.012,0.0139,0.0131,0.0137,0.0153,0.014,0.0138,0.0157,0.0139,0.0133,0.0112,0.0111,0.0104,0.0103,0.0059,0.0058,0.0057,0.01,0,0,0,0,0,0,0.0101,0.0097,0.0099,0.0114,0.0117,0.0129,0.0132,0.0139,0.0145,0.0146,0.0144,0.0138,0.0137,0.0114,0.0111,0.0109,0.0102,0.0059,0.0058,0.0057,0.01,0.0101,0.0103,0,0,0,0,0,0.0103,0.0114,0.0099,0.0097,0.0113,0.0129,0.0138,0.0154,0.0146,0.0163,0.0151,0.0138,0.0104,0.0113,0.0109,0.0107,0.006,0.0059,0.0057,0.0099,0.0101,0.0103,0,0,0,0,0,0,0.014,0.0117,0.0102,0.0107,0.0107,0.013,0.0152,0.0147,0.016,0.0156,0.0139,0.0134,0.0117,0.0099,0.0108,0.0087,0.0076,0.0075,0.0109,0.0111,0.0112,0.0107,0.0101,0,0,0,0,0,0.0141,0.0139,0.0123,0.0126,0.0125,0.0133,0.0145,0.0148,0.0149,0.0155,0.0148,0.0131,0.0116,0.0101,0.0095,0.0083,0.008,0.0074,0.0075,0.0077,0.0068,0.0055,0.0056,0.0053,0.0053,0.0053,0,0,0.0154,0.0141,0.0139,0.0133,0.0141,0.015,0.0141,0.0154,0.016,0.0142,0.0156,0.014,0.0114,0.0111,0.0099,0.009,0.0085,0.0075,0.0077,0.0067,0.0054,0.0055,0.0055,0.0052,0.0052,0.0052,0,0,0.0184,0.0166,0.0176,0.0177,0.0172,0.0171,0.0162,0.0173,0.0179,0.0178,0.0165,0.0142,0.0128,0.0115,0.0101,0.0098,0.0097,0.0091,0.0092,0.0081,0.0081,0.0081,0.0122,0.0125,0.0087,0.0087,0.0087,0,0.0201,0.0204,0.0186,0.0199,0.0198,0.017,0.0183,0.019,0.0192,0.019,0.0178,0.0154,0.013,0.0111,0.0109,0.0102,0.0113,0.0094,0.0085,0.0085,0.0084,0.0125,0.0128,0.0089,0.0089,0.0088,0.0088,0,0.0241,0.0241,0.0251,0.0244,0.0245,0.0254,0.0234,0.0237,0.022,0.0217,0.0199,0.0176,0.0159,0.0142,0.0122,0.0104,0.0123,0.0097,0.0087,0.0087,0.0131,0.0133,0.0092,0.0091,0.009,0.009,0,0,0.0271,0.0277,0.0276,0.0281,0.0267,0.0272,0.0269,0.0259,0.0268,0.0243,0.026,0.0201,0.0188,0.0169,0.0145,0.0114,0.0131,0.0101,0.0099,0.0154,0.0149,0.0173,0.0179,0.0106,0.0106,0.0105,0.0197,0,0.0303,0.0338,0.0322,0.034,0.0354,0.0322,0.0324,0.031,0.0304,0.0321,0.0265,0.0284,0.02,0.0218,0.0161,0.0152,0.0132,0.0111,0.0127,0.0129,0.0159,0.0179,0.0166,0.0246,0.02,0.02,0.0201,0,0.0341,0.0357,0.0391,0.0388,0.0389,0.0392,0.0389,0.0397,0.0393,0.0398,0.0375,0.0365,0.0332,0.0272,0.021,0.0205,0.0171,0.0144,0.0147,0.0148,0.0156,0.0227,0.0252,-0.0026,0.0204,0.0204,0.0204,0,0.0386,0.0395,0.0422,0.0426,0.0426,0.0427,0.0423,0.042,0.0474,0.048,0.0558,0.0459,0.0519,0.0391,0.0339,0.0281,0.0298,0.0221,0.0209,0.0213,0.0192,0.0194,-0.0046,0.0169,0.0169,0.0168,0.0168,0,0.0438,0.0463,0.0445,0.0472,0.0505,0.0476,0.0534,0.0525,0.0581,0.0712,0.0623,0.075,0.0556,0.0556,0.0405,0.0349,0.0357,0.0219,0.0228,0.0212,0.0214,-0.0039,-0.0168,0.0172,0.0171,0.0171,0.017,0,0.0548,0.0511,0.0567,0.0558,0.0542,0.0593,0.065,0.0742,0.0752,0.094,0.098,0.1012,0.102,0.0837,0.0713,0.0526,0.0288,0.0389,0.0411,0.0417,0.0076,-0.0047,-0.0177,-0.0277,0.0351,0.0352,0.0353,0,0.0648,0.0681,0.0671,0.0718,0.0731,0.0777,0.0851,0.0841,0.0975,0.1149,0.1296,0.1354,0.1467,0.1271,0.0927,0.0669,0.0422,0.0475,0.0317,0.0057,-0.0073,-0.0144,-0.0225,0.0333,0.0334,0.0334,0.0335,0,0.0883,0.0855,0.0903,0.0965,0.1031,0.1118,0.1212,0.1312,0.1392,0.1549,0.1804,0.19,0.1744,0.1494,0.1107,0.088,0.0275,0.0477,0.0181,-0.0134,-0.0198,-0.0287,0.0306,0.0339,0.0339,0.0338,0.0338,0.0338,0.1106,0.1176,0.1202,0.1263,0.1347,0.1474,0.1558,0.1703,0.1896,0.2114,0.2186,0.232,0.1898,0.1369,0.1049,0.0326,0.0355,0.0068,-0.0055,-0.0098,-0.024,0.0389,0.0436,0.0437,0.0437,0.0437,0.0437,0,0.1374,0.1393,0.1503,0.1564,0.1692,0.1654,0.1827,0.193,0.2164,0.2359,0.2534,0.2354,0.1827,0.1212,0.0305,-0.016,-0.0348,-0.0431,-0.0605,-0.0662,-0.0135,-0.0192,-0.0246,-0.0246,-0.0245,-0.0245,-0.0245,-0.0244,0.1521,0.1634,0.1634,0.1839,0.1895,0.2045,0.213,0.2293,0.2414,0.2596,0.2606,0.2617,0.2082,0.0559,-0.0539,-0.0783,-0.113,-0.1129,-0.1301,-0.1052,-0.1018,-0.0986,-0.1078,-0.1317,-0.1318,-0.1795,-0.1801,-0.1805]}],[{"header":{"parameterUnit":"m.s-1","parameterCategory":2,"la1":30.2991,"la2":30.254,"lo1":-89.0895,"lo2":-89.0444,"dy":0.0017,"dx":0.0017,"nx":28,"ny":28,"refTime":"2024-04-23T09:00:00:Z","depth":"2","parameterNumber":2,"parameterNumberName":"U-component_of_CURRENTS"},"data":[0,0,0,0,0,0,0,0,0,0,0,0,0,0,0,0,0,0,0,0,0,0,0,0,0,0,0,0,0,0,0,0,0,0,0,0,0,0,0,0,0,0,0,0,0,0,0,0,0,0,0,0,0,0,0,0,0,0,0.1695,0.1696,0,0.171,0.171,0.171,0.171,0.171,0.171,0.171,0.1689,0.1689,0.1689,0,0,0,0,0,0,0,0,0,0,0,0,0,0.1697,0.1697,0.1695,0.1696,0.1696,0.171,0.171,0.171,0.171,0.171,0.171,0.171,0.1689,0.1689,0.1689,0,0,0,0,0,0,0,0,0,0,0,0,0,0.1702,0.1697,0.1695,0.1698,0.1698,0.171,0.171,0.171,0.171,0.171,0.171,0.1709,0.169,0.1689,0.1688,0.169,0,0,0.1687,0.1686,0,0,0,0,0,0,0,0,0.1702,0.1702,0.1697,0.1698,0.1698,0.1708,0.1703,0.1702,0.171,0.1705,0.171,0.1709,0.1693,0.1692,0.1695,0.1689,0.1688,0.1687,0.1686,0.1686,0.1686,0,0,0,0,0,0,0,0.1701,0.1701,0.1701,0.1697,0.1698,0.1708,0.1708,0.1703,0.1699,0.1706,0.1706,0.1708,0.1693,0.1696,0.1695,0.1688,0.1687,0.1686,0.1686,0.1686,0.1714,0.1715,0,0,0,0,0,0,0.1699,0.1701,0.17,0.1701,0.17,0.1708,0.1708,0.1705,0.17,0.17,0.1708,0.1708,0.1697,0.1695,0.1694,0.1723,0.1686,0.1686,0.1685,0.1713,0.1715,0.1716,0,0,0,0,0,0,0.1699,0.1698,0.17,0.1702,0.1703,0.1708,0.1705,0.1705,0.1708,0.1703,0.1701,0.1709,0.1697,0.1695,0.1701,0.1721,0.1685,0.1685,0.1712,0.1714,0.1715,0.1764,0,0,0,0,0,0,0.1698,0.1698,0.1696,0.1702,0.1703,0.1709,0.1705,0.1706,0.1709,0.1709,0.1703,0.1701,0.1696,0.1702,0.17,0.172,0.1684,0.171,0.1713,0.1715,0.1761,0.1767,0.1772,0,0,0,0,0,0.1698,0.1688,0.1695,0.1695,0.1699,0.1709,0.1711,0.1714,0.171,0.1714,0.1716,0.1701,0.1714,0.1702,0.17,0.172,0.1709,0.1712,0.1714,0.1758,0.1766,0.1772,0,0,0,0,0,0,0.1681,0.1688,0.1695,0.1686,0.1701,0.1709,0.1709,0.1714,0.1719,0.1716,0.1711,0.171,0.1723,0.1715,0.1702,0.1736,0.1711,0.1713,0.1745,0.1752,0.1758,0.1772,0.1684,0,0,0,0,0,0.1679,0.1674,0.169,0.1683,0.1691,0.1702,0.1706,0.1712,0.1717,0.1719,0.1718,0.1721,0.1733,0.1736,0.1737,0.1752,0.1774,0.1766,0.1771,0.1776,0.1788,0.1838,0.185,0.1724,0.1724,0.1724,0,0,0.1667,0.1672,0.1667,0.168,0.1689,0.1712,0.1704,0.171,0.1732,0.1715,0.1735,0.1735,0.174,0.1762,0.1767,0.1757,0.1827,0.1779,0.1784,0.1792,0.1842,0.1854,0.1865,0.1726,0.1725,0.1725,0,0,0.1653,0.1651,0.1653,0.1672,0.1692,0.1706,0.171,0.1725,0.1735,0.1755,0.1756,0.1774,0.1777,0.1799,0.1808,0.1846,0.1852,0.1841,0.1885,0.1934,0.1945,0.1955,0.2013,0.2028,0.1848,0.1848,0.1848,0,0.1641,0.1653,0.1655,0.1677,0.1695,0.1707,0.1732,0.1748,0.1764,0.1782,0.1765,0.1805,0.1802,0.1853,0.187,0.186,0.189,0.1857,0.1942,0.1952,0.1962,0.2019,0.2035,0.1851,0.185,0.185,0.185,0,0.1644,0.1661,0.1664,0.17,0.172,0.1737,0.177,0.1789,0.1799,0.1822,0.186,0.1865,0.1896,0.1897,0.1895,0.1963,0.1965,0.1941,0.1926,0.1978,0.2035,0.205,0.1854,0.1853,0.1853,0.1852,0,0,0.1602,0.1656,0.166,0.1689,0.1736,0.1751,0.1796,0.1845,0.1878,0.1897,0.1945,0.1971,0.1977,0.1989,0.1991,0.2031,0.2125,0.2018,0.2019,0.208,0.2249,0.2289,0.2309,0.2115,0.2117,0.2119,0.2269,0,0.161,0.1651,0.1681,0.173,0.1758,0.1797,0.1839,0.1884,0.1917,0.1965,0.1993,0.2029,0.2013,0.2027,0.2072,0.2115,0.2165,0.2087,0.2188,0.2192,0.2222,0.2328,0.2075,0.2191,0.2284,0.2287,0.2289,0,0.1612,0.1644,0.1689,0.1757,0.1773,0.1805,0.1876,0.1913,0.199,0.2018,0.2072,0.2092,0.2175,0.2129,0.2256,0.2209,0.2238,0.226,0.2266,0.2296,0.226,0.2151,0.2215,0.2314,0.2312,0.231,0.2308,0,0.1583,0.165,0.1684,0.1708,0.1785,0.1814,0.1852,0.1925,0.1979,0.2051,0.2117,0.2183,0.2259,0.2294,0.238,0.2315,0.252,0.243,0.2494,0.2496,0.23,0.2282,0.2509,0.2508,0.2508,0.2508,0.2507,0,0.1579,0.1608,0.1672,0.1694,0.1746,0.1795,0.186,0.1906,0.2,0.2087,0.2142,0.2239,0.2308,0.2434,0.2439,0.2568,0.2583,0.254,0.2552,0.2312,0.2295,0.2401,0.2386,0.2513,0.2512,0.2511,0.251,0,0.1537,0.1583,0.1625,0.1702,0.1733,0.1758,0.1871,0.1922,0.2018,0.214,0.2175,0.2339,0.2497,0.2587,0.2691,0.2692,0.2757,0.2786,0.2523,0.2501,0.267,0.2656,0.2842,0.2845,0.2847,0.2849,0.2851,0,0.1516,0.1534,0.1614,0.1648,0.1684,0.1747,0.1803,0.1907,0.198,0.2201,0.2267,0.2475,0.2605,0.2825,0.2813,0.287,0.2891,0.2711,0.2531,0.2719,0.2711,0.2693,0.2676,0.2283,0.228,0.2277,0.2275,0,0.1479,0.1503,0.154,0.1602,0.1661,0.1733,0.1824,0.1894,0.204,0.2178,0.2363,0.2481,0.2684,0.2656,0.2784,0.2757,0.2673,0.2666,0.2947,0.2257,0.221,0.2196,0.2194,0.2253,0.2255,0.2257,0.2258,0.2259,0.1442,0.1449,0.1496,0.1553,0.1619,0.1689,0.1732,0.1857,0.1983,0.2125,0.2302,0.2401,0.247,0.2504,0.249,0.2473,0.2612,0.2484,0.2483,0.2487,0.2415,0.2377,0.2438,0.2441,0.2444,0.2447,0.2449,0,0.1377,0.1405,0.1453,0.1512,0.1546,0.1616,0.1727,0.1756,0.1875,0.2008,0.2127,0.2012,0.2057,0.2138,0.2055,0.2108,0.1982,0.2058,0.1843,0.187,0.1892,0.178,0.164,0.1638,0.1635,0.1633,0,0,0.1344,0.1353,0.1381,0.1417,0.147,0.1499,0.1545,0.1609,0.1689,0.1708,0.173,0.1881,0.2045,0.1774,0.1785,0.1704,0.1757,0.1645,0.2293,0.2063,0.2081,0.2148,0.2011,0,0,0,0,0]},{"header":{"parameterUnit":"m.s-1","parameterCategory":2,"la1":30.2991,"la2":30.254,"lo1":-89.0895,"lo2":-89.0444,"dy":0.0017,"dx":0.0017,"nx":28,"ny":28,"refTime":"2024-04-23T09:00:00:Z","depth":"2","parameterNumber":3,"parameterNumberName":"V-component_of_CURRENTS"},"data":[0,0,0,0,0,0,0,0,0,0,0,0,0,0,0,0,0,0,0,0,0,0,0,0,0,0,0,0,0,0,0,0,0,0,0,0,0,0,0,0,0,0,0,0,0,0,0,0,0,0,0,0,0,0,0,0,0,0,-0.046,-0.0461,0,-0.0685,-0.0688,-0.0691,-0.08,-0.0799,-0.0799,-0.0798,-0.0841,-0.0843,-0.0844,0,0,0,0,0,0,0,0,0,0,0,0,0,-0.0263,-0.0266,-0.0459,-0.0462,-0.0464,-0.0684,-0.0688,-0.0692,-0.08,-0.0799,-0.0798,-0.0797,-0.084,-0.0842,-0.0845,0,0,0,0,0,0,0,0,0,0,0,0,0,-0.0412,-0.0267,-0.0459,-0.0538,-0.0547,-0.0684,-0.0688,-0.0693,-0.08,-0.0799,-0.0798,-0.0797,-0.0839,-0.0842,-0.0845,-0.0886,0,0,-0.0854,-0.0855,0,0,0,0,0,0,0,0,-0.0403,-0.042,-0.0525,-0.0533,-0.0543,-0.0706,-0.0635,-0.0746,-0.0801,-0.0713,-0.0798,-0.0796,-0.0774,-0.0783,-0.0842,-0.0888,-0.089,-0.0854,-0.0856,-0.0857,-0.0858,0,0,0,0,0,0,0,-0.0392,-0.0411,-0.0557,-0.0527,-0.0538,-0.061,-0.063,-0.0659,-0.075,-0.072,-0.0727,-0.074,-0.0779,-0.0839,-0.0843,-0.0891,-0.0854,-0.0856,-0.0858,-0.0859,-0.0916,-0.0916,0,0,0,0,0,0,-0.0343,-0.0401,-0.055,-0.0563,-0.046,-0.0613,-0.0636,-0.0662,-0.0754,-0.0767,-0.074,-0.0744,-0.0835,-0.0839,-0.0844,-0.0851,-0.0857,-0.0859,-0.0861,-0.0916,-0.0916,-0.0916,0,0,0,0,0,0,-0.0338,-0.0355,-0.054,-0.048,-0.0507,-0.0616,-0.0646,-0.0666,-0.0716,-0.077,-0.078,-0.0766,-0.0834,-0.084,-0.0876,-0.0854,-0.0861,-0.0863,-0.0917,-0.0916,-0.0916,-0.0893,0,0,0,0,0,0,-0.0332,-0.0352,-0.0365,-0.0477,-0.0509,-0.0617,-0.0647,-0.0671,-0.0723,-0.0729,-0.0795,-0.0799,-0.0834,-0.0871,-0.0878,-0.0858,-0.0865,-0.0917,-0.0917,-0.0916,-0.0894,-0.0892,-0.0891,0,0,0,0,0,-0.0325,-0.035,-0.0365,-0.0383,-0.052,-0.0617,-0.0642,-0.072,-0.0724,-0.0759,-0.08,-0.0797,-0.0872,-0.0875,-0.0883,-0.0863,-0.0917,-0.0917,-0.0916,-0.0895,-0.0893,-0.0891,0,0,0,0,0,0,-0.0276,-0.0366,-0.0384,-0.0436,-0.0511,-0.0632,-0.0666,-0.0711,-0.0781,-0.0763,-0.0816,-0.0826,-0.0844,-0.086,-0.0861,-0.0877,-0.0885,-0.0886,-0.0866,-0.0864,-0.0862,-0.0839,-0.0868,0,0,0,0,0,-0.0265,-0.0309,-0.0396,-0.0438,-0.0461,-0.0557,-0.0605,-0.0648,-0.0717,-0.0748,-0.0796,-0.0825,-0.0855,-0.0863,-0.0897,-0.0914,-0.093,-0.0899,-0.0897,-0.0895,-0.0881,-0.0912,-0.0912,-0.0915,-0.0915,-0.0915,0,0,-0.0254,-0.0311,-0.0335,-0.043,-0.0487,-0.0536,-0.0585,-0.0639,-0.0677,-0.0734,-0.079,-0.0824,-0.086,-0.0888,-0.0893,-0.0894,-0.0903,-0.0895,-0.0893,-0.088,-0.0912,-0.0911,-0.0911,-0.0914,-0.0915,-0.0915,0,0,-0.0261,-0.0299,-0.0335,-0.0388,-0.0457,-0.0514,-0.0518,-0.0618,-0.0654,-0.0716,-0.0752,-0.0777,-0.0841,-0.0865,-0.0882,-0.0884,-0.0897,-0.0881,-0.085,-0.088,-0.088,-0.088,-0.0901,-0.0903,-0.0874,-0.0874,-0.0874,0,-0.0238,-0.0295,-0.0361,-0.0402,-0.0429,-0.0492,-0.0517,-0.0578,-0.068,-0.0694,-0.0715,-0.0799,-0.0828,-0.0849,-0.0856,-0.0877,-0.0898,-0.0858,-0.0878,-0.0878,-0.0879,-0.09,-0.0903,-0.0873,-0.0873,-0.0873,-0.0873,0,-0.0277,-0.0308,-0.0326,-0.0392,-0.0438,-0.0464,-0.0528,-0.0564,-0.0597,-0.0654,-0.0687,-0.0751,-0.0793,-0.0802,-0.0837,-0.0843,-0.0859,-0.0878,-0.0883,-0.0877,-0.09,-0.0903,-0.0871,-0.0872,-0.0872,-0.0872,0,0,-0.0235,-0.0332,-0.0329,-0.0343,-0.0417,-0.0453,-0.0487,-0.0539,-0.0546,-0.0625,-0.0643,-0.0705,-0.0729,-0.0749,-0.0784,-0.0808,-0.0838,-0.0841,-0.0843,-0.086,-0.0904,-0.0902,-0.0906,-0.0869,-0.0869,-0.0869,-0.0919,0,-0.0227,-0.0285,-0.0338,-0.0363,-0.0381,-0.0427,-0.0459,-0.0505,-0.0549,-0.0587,-0.0625,-0.0658,-0.0712,-0.0718,-0.0758,-0.0807,-0.0845,-0.0822,-0.0907,-0.0909,-0.0908,-0.0909,-0.0806,-0.0841,-0.0923,-0.0923,-0.0924,0,-0.0232,-0.0266,-0.029,-0.0327,-0.0334,-0.0357,-0.0377,-0.0418,-0.0472,-0.0501,-0.0541,-0.0586,-0.0621,-0.0671,-0.0762,-0.0747,-0.0826,-0.0873,-0.0877,-0.0881,-0.0913,-0.086,-0.0844,-0.0929,-0.0929,-0.0928,-0.0928,0,-0.0168,-0.0219,-0.0228,-0.0244,-0.0306,-0.0301,-0.0326,-0.0378,-0.038,-0.0436,-0.042,-0.0511,-0.0497,-0.0627,-0.0721,-0.0751,-0.0817,-0.0872,-0.095,-0.095,-0.0879,-0.0873,-0.0956,-0.0955,-0.0955,-0.0955,-0.0955,0,-0.0143,-0.0145,-0.0189,-0.0194,-0.0172,-0.0236,-0.0213,-0.0258,-0.0283,-0.0264,-0.0357,-0.035,-0.0482,-0.0538,-0.0691,-0.0804,-0.0797,-0.0937,-0.0962,-0.0869,-0.0862,-0.095,-0.0949,-0.0957,-0.0957,-0.0956,-0.0956,0,-0.0102,-0.013,-0.0132,-0.0157,-0.0148,-0.0135,-0.0127,-0.0122,-0.0143,-0.0113,-0.0113,-0.0188,-0.0277,-0.0413,-0.0581,-0.0707,-0.0859,-0.091,-0.0783,-0.0793,-0.0991,-0.0988,-0.1025,-0.1025,-0.1026,-0.1026,-0.1026,0,-0.0115,-0.0107,-0.0086,-0.0069,-0.0076,-0.0051,-0.0032,-0.005,-0.0039,-0.0024,-0.0005,-0.0048,-0.0105,-0.0327,-0.0525,-0.0755,-0.0841,-0.0838,-0.0891,-0.0977,-0.0998,-0.0995,-0.0991,-0.079,-0.0788,-0.0786,-0.0785,0,-0.0125,-0.0095,-0.0094,-0.0043,-0.0004,0.0039,0.0066,0.0108,0.0102,0.0151,0.0154,0.0121,-0.0032,-0.0212,-0.0468,-0.0634,-0.0799,-0.082,-0.0922,-0.0792,-0.0761,-0.078,-0.0783,-0.0772,-0.0774,-0.0775,-0.0775,-0.0776,-0.0134,-0.0116,-0.009,-0.004,0.0017,0.0084,0.0141,0.0186,0.0246,0.0343,0.0288,0.0312,0.0113,-0.0175,-0.0428,-0.0668,-0.0724,-0.0832,-0.0834,-0.0838,-0.0805,-0.0777,-0.0785,-0.0787,-0.0788,-0.0789,-0.079,0,-0.0165,-0.0134,-0.01,-0.0036,0.0034,0.008,0.0173,0.0257,0.0361,0.0469,0.0521,0.0395,0.0202,-0.0054,-0.0373,-0.0624,-0.0624,-0.0718,-0.0663,-0.0674,-0.0683,-0.0642,-0.058,-0.058,-0.058,-0.0581,0,0,-0.0185,-0.0161,-0.0132,-0.004,0.0028,0.0154,0.0231,0.0379,0.0488,0.0613,0.0679,0.0702,0.0345,0.015,-0.0171,-0.0372,-0.0467,-0.0404,-0.0541,-0.0446,-0.0452,-0.0712,-0.0656,0,0,0,0,0]}],[{"header":{"parameterUnit":"m.s-1","parameterCategory":2,"la1":30.2991,"la2":30.254,"lo1":-89.0895,"lo2":-89.0444,"dy":0.0017,"dx":0.0017,"nx":28,"ny":28,"refTime":"2024-04-23T09:00:00:Z","depth":"4","parameterNumber":2,"parameterNumberName":"U-component_of_CURRENTS"},"data":[0,0,0,0,0,0,0,0,0,0,0,0,0,0,0,0,0,0,0,0,0,0,0,0,0,0,0,0,0,0,0,0,0,0,0,0,0,0,0,0,0,0,0,0,0,0,0,0,0,0,0,0,0,0,0,0,0,0,0.0944,0.0944,0,0.0985,0.0986,0.0986,0.1022,0.1023,0.1024,0.1024,0.1065,0.1066,0.1066,0,0,0,0,0,0,0,0,0,0,0,0,0,0.0873,0.0874,0.0944,0.0944,0.0945,0.0985,0.0986,0.0986,0.1022,0.1023,0.1024,0.1025,0.1065,0.1066,0.1066,0,0,0,0,0,0,0,0,0,0,0,0,0,0.0905,0.0874,0.0943,0.0971,0.0974,0.0985,0.0986,0.0986,0.1022,0.1023,0.1024,0.1025,0.1065,0.1066,0.1066,0.1048,0,0,0.1068,0.1068,0,0,0,0,0,0,0,0,0.0903,0.0907,0.0966,0.0969,0.0972,0.1003,0.0976,0.1008,0.1022,0.1,0.1024,0.1026,0.1046,0.1048,0.1048,0.105,0.1052,0.1068,0.1068,0.1069,0.1069,0,0,0,0,0,0,0,0.0901,0.0905,0.0957,0.0967,0.0971,0.0974,0.0979,0.0982,0.1013,0.1002,0.1006,0.1015,0.1047,0.1048,0.105,0.1052,0.1068,0.1069,0.1069,0.1069,0.1117,0.1118,0,0,0,0,0,0,0.0903,0.0903,0.0955,0.0958,0.0944,0.0974,0.098,0.0989,0.1014,0.1019,0.1014,0.1017,0.1046,0.1049,0.1051,0.1112,0.1069,0.1069,0.107,0.1116,0.1117,0.1118,0,0,0,0,0,0,0.0901,0.0907,0.0954,0.0934,0.0941,0.0975,0.0984,0.0989,0.1015,0.1024,0.1029,0.1038,0.1047,0.1051,0.1077,0.1111,0.107,0.107,0.1115,0.1116,0.1117,0.1181,0,0,0,0,0,0,0.0898,0.0906,0.0921,0.0935,0.0943,0.0974,0.0984,0.099,0.102,0.1024,0.1045,0.1049,0.1048,0.1077,0.1078,0.1111,0.1071,0.1114,0.1115,0.1117,0.1178,0.1184,0.119,0,0,0,0,0,0.0896,0.091,0.0921,0.0928,0.0959,0.0975,0.0979,0.1004,0.102,0.1031,0.1051,0.1049,0.1088,0.1078,0.1079,0.1113,0.1113,0.1115,0.1117,0.1175,0.1183,0.119,0,0,0,0,0,0,0.0887,0.0916,0.0928,0.0951,0.0969,0.0983,0.1,0.1015,0.1038,0.1051,0.1057,0.1062,0.1086,0.1092,0.108,0.113,0.1101,0.1104,0.1145,0.1153,0.1159,0.1166,0.1071,0,0,0,0,0,0.0892,0.0912,0.0933,0.0954,0.0964,0.0985,0.0999,0.1016,0.1036,0.1048,0.107,0.1088,0.109,0.1117,0.111,0.1151,0.1157,0.1173,0.1179,0.1185,0.1191,0.1234,0.1245,0.1125,0.1125,0.1125,0,0,0.0893,0.0914,0.0925,0.0954,0.097,0.0987,0.0996,0.1023,0.1047,0.1047,0.1096,0.1096,0.1096,0.1128,0.1144,0.1149,0.1222,0.1187,0.1192,0.1196,0.1237,0.1249,0.126,0.1126,0.1126,0.1126,0,0,0.09,0.0925,0.0942,0.0957,0.099,0.1003,0.1016,0.1048,0.1073,0.1108,0.1109,0.1143,0.1161,0.1181,0.1186,0.1225,0.1229,0.1225,0.1295,0.1337,0.1348,0.1357,0.138,0.1391,0.1258,0.1258,0.1258,0,0.09,0.0926,0.0949,0.0967,0.0984,0.1013,0.1031,0.1055,0.1097,0.1126,0.1132,0.1176,0.1185,0.1226,0.1249,0.1241,0.1259,0.1269,0.1347,0.1356,0.1365,0.1386,0.1397,0.1262,0.1261,0.1261,0.1261,0,0.0914,0.0939,0.095,0.0984,0.1005,0.1025,0.1059,0.1095,0.1132,0.1165,0.1216,0.1235,0.1274,0.1283,0.1283,0.1353,0.1341,0.1327,0.1331,0.1381,0.14,0.1411,0.1266,0.1265,0.1264,0.1263,0,0,0.0893,0.0948,0.0954,0.0971,0.1017,0.1031,0.1078,0.1127,0.1168,0.1222,0.1282,0.1314,0.1349,0.1358,0.1373,0.1429,0.151,0.1425,0.1426,0.1453,0.16,0.149,0.1491,0.1519,0.1521,0.1522,0.1588,0,0.0894,0.0929,0.0962,0.0996,0.1012,0.1054,0.1095,0.1149,0.12,0.1267,0.1317,0.1368,0.1371,0.1407,0.1464,0.149,0.1542,0.1493,0.1542,0.1543,0.1445,0.1501,0.153,0.1596,0.1599,0.16,0.1602,0,0.089,0.0917,0.095,0.1005,0.1019,0.1047,0.1118,0.1172,0.1266,0.1301,0.1377,0.1417,0.1514,0.1499,0.16,0.1573,0.1597,0.1614,0.1616,0.1499,0.1453,0.1535,0.1621,0.1619,0.1618,0.1616,0.1615,0,0.0853,0.0906,0.0935,0.095,0.1017,0.1047,0.1104,0.119,0.1242,0.1348,0.1399,0.1489,0.1558,0.1608,0.1669,0.1648,0.1761,0.1729,0.1645,0.1637,0.1688,0.1677,0.1789,0.1789,0.1789,0.1789,0.1789,0,0.083,0.0852,0.0921,0.093,0.0976,0.1044,0.1116,0.1169,0.1266,0.134,0.1439,0.1491,0.1595,0.1675,0.1699,0.1713,0.1791,0.1663,0.1653,0.1711,0.1702,0.1695,0.1683,0.1791,0.1791,0.179,0.179,0,0.0778,0.0826,0.0855,0.0927,0.0957,0.1,0.1111,0.1157,0.1267,0.1364,0.1408,0.1524,0.1613,0.1695,0.1777,0.1746,0.1767,0.1746,0.1813,0.1804,0.1603,0.1594,0.1651,0.1647,0.1645,0.1643,0.1641,0,0.0752,0.0762,0.0838,0.0855,0.0887,0.0968,0.1019,0.1136,0.1179,0.1367,0.139,0.1529,0.1599,0.1632,0.1707,0.1741,0.1718,0.1728,0.1652,0.1608,0.1593,0.1588,0.1582,0.1636,0.1636,0.1635,0.1634,0,0.0693,0.0726,0.0749,0.0783,0.0828,0.0888,0.0968,0.0985,0.1142,0.1265,0.1341,0.1415,0.1505,0.1553,0.1602,0.1618,0.1723,0.1699,0.1703,0.1632,0.1591,0.1577,0.1575,0.1625,0.1626,0.1627,0.1628,0,0.0644,0.0646,0.0675,0.07,0.0756,0.0779,0.0838,0.0899,0.0973,0.1173,0.1196,0.1353,0.1477,0.149,0.1533,0.1547,0.151,0.1469,0.1485,0.1496,0.1416,0.1339,0.1298,0,0,0,0,0,0.0591,0.0585,0.0589,0.0606,0.0652,0.0687,0.0786,0.0848,0.101,0.1027,0.1106,0.1186,0.1273,0.1336,0.1315,0.1443,0.1501,0.1414,0.1456,0.1573,0.1584,0.1504,0,0,0,0,0,0,0.0551,0.0559,0.056,0.0527,0.0519,0.0563,0.0627,0.0726,0.0733,0.0908,0.0942,0.1107,0.1178,0.126,0.1286,0.131,0.1313,0.1511,0.1508,0.1567,0.1577,0.1585,0.1508,0,0,0,0,0]},{"header":{"parameterUnit":"m.s-1","parameterCategory":2,"la1":30.2991,"la2":30.254,"lo1":-89.0895,"lo2":-89.0444,"dy":0.0017,"dx":0.0017,"nx":28,"ny":28,"refTime":"2024-04-23T09:00:00:Z","depth":"4","parameterNumber":3,"parameterNumberName":"V-component_of_CURRENTS"},"data":[0,0,0,0,0,0,0,0,0,0,0,0,0,0,0,0,0,0,0,0,0,0,0,0,0,0,0,0,0,0,0,0,0,0,0,0,0,0,0,0,0,0,0,0,0,0,0,0,0,0,0,0,0,0,0,0,0,0,-0.014,-0.0141,0,-0.0179,-0.0179,-0.018,-0.0198,-0.0199,-0.0199,-0.0199,-0.0258,-0.0259,-0.026,0,0,0,0,0,0,0,0,0,0,0,0,0,-0.0076,-0.0077,-0.014,-0.0141,-0.0141,-0.0179,-0.0179,-0.018,-0.0198,-0.0199,-0.0199,-0.0199,-0.0257,-0.0259,-0.026,0,0,0,0,0,0,0,0,0,0,0,0,0,-0.0106,-0.0077,-0.014,-0.0158,-0.016,-0.0179,-0.0179,-0.018,-0.0198,-0.0199,-0.0199,-0.0199,-0.0257,-0.0259,-0.0261,-0.0265,0,0,-0.0267,-0.0267,0,0,0,0,0,0,0,0,-0.0104,-0.0107,-0.0154,-0.0156,-0.0159,-0.0187,-0.0179,-0.021,-0.0198,-0.018,-0.0199,-0.02,-0.0238,-0.0241,-0.0243,-0.0267,-0.027,-0.0267,-0.0268,-0.0269,-0.0269,0,0,0,0,0,0,0,-0.0102,-0.0106,-0.0152,-0.0155,-0.0158,-0.0162,-0.0167,-0.0184,-0.0204,-0.0182,-0.0184,-0.0193,-0.0239,-0.0241,-0.0245,-0.0271,-0.0267,-0.0268,-0.027,-0.027,-0.0293,-0.0293,0,0,0,0,0,0,-0.0103,-0.0104,-0.0151,-0.0154,-0.0135,-0.0163,-0.0168,-0.0175,-0.0204,-0.0209,-0.0193,-0.0194,-0.0237,-0.0242,-0.0247,-0.0246,-0.0269,-0.0271,-0.0272,-0.0294,-0.0293,-0.0293,0,0,0,0,0,0,-0.0102,-0.0107,-0.015,-0.0132,-0.0139,-0.0164,-0.0172,-0.0176,-0.0185,-0.0212,-0.0218,-0.02,-0.0238,-0.0244,-0.0254,-0.0249,-0.0272,-0.0273,-0.0295,-0.0294,-0.0293,-0.025,0,0,0,0,0,0,-0.01,-0.0106,-0.011,-0.0132,-0.014,-0.0155,-0.0172,-0.0176,-0.0191,-0.0193,-0.022,-0.0225,-0.0239,-0.025,-0.0255,-0.0252,-0.0275,-0.0295,-0.0294,-0.0293,-0.0252,-0.0248,-0.0244,0,0,0,0,0,-0.0097,-0.0104,-0.011,-0.0116,-0.0145,-0.0155,-0.0158,-0.0176,-0.0191,-0.0187,-0.0203,-0.0225,-0.0247,-0.0251,-0.0258,-0.0255,-0.0296,-0.0295,-0.0293,-0.0254,-0.0249,-0.0244,0,0,0,0,0,0,-0.0078,-0.0107,-0.0114,-0.0129,-0.0138,-0.0159,-0.0166,-0.0178,-0.0188,-0.0194,-0.0218,-0.0223,-0.0221,-0.0247,-0.0251,-0.0257,-0.0276,-0.0276,-0.0244,-0.0239,-0.0235,-0.0214,-0.0276,0,0,0,0,0,-0.0076,-0.0088,-0.0109,-0.0119,-0.0125,-0.0145,-0.0154,-0.0164,-0.0179,-0.0184,-0.0203,-0.0221,-0.022,-0.0237,-0.0238,-0.0254,-0.0273,-0.0256,-0.0252,-0.0249,-0.0235,-0.0253,-0.025,-0.0288,-0.0288,-0.0288,0,0,-0.0072,-0.009,-0.0097,-0.0116,-0.0127,-0.0122,-0.0151,-0.0162,-0.0153,-0.0189,-0.0188,-0.02,-0.0215,-0.0215,-0.022,-0.0242,-0.0251,-0.0247,-0.0244,-0.0232,-0.0252,-0.0248,-0.0244,-0.0288,-0.0288,-0.0288,0,0,-0.0063,-0.0084,-0.0087,-0.009,-0.0108,-0.0114,-0.0117,-0.0138,-0.0142,-0.0143,-0.0156,-0.0166,-0.0185,-0.019,-0.0195,-0.0175,-0.0214,-0.0184,-0.0166,-0.0184,-0.0181,-0.0179,-0.0211,-0.0212,-0.02,-0.02,-0.02,0,-0.0055,-0.0059,-0.0087,-0.0083,-0.0079,-0.0107,-0.0091,-0.0098,-0.0116,-0.0114,-0.0136,-0.014,-0.0167,-0.0152,-0.0149,-0.0165,-0.0187,-0.0184,-0.0179,-0.0177,-0.0175,-0.0209,-0.021,-0.0198,-0.0198,-0.0198,-0.0199,0,-0.0042,-0.004,-0.0042,-0.004,-0.0037,-0.0033,-0.004,-0.0041,-0.0056,-0.0064,-0.0055,-0.0082,-0.0089,-0.0103,-0.0124,-0.012,-0.0144,-0.0157,-0.0191,-0.0168,-0.0206,-0.0208,-0.0195,-0.0196,-0.0196,-0.0197,0,0,-0.0035,-0.0031,-0.003,-0.0012,-0.0012,-0.0006,0.0012,0.0023,0.0038,0.0013,0.0028,0.0014,-0.0012,-0.0019,-0.005,-0.008,-0.0104,-0.012,-0.0122,-0.0151,-0.0156,-0.0179,-0.0185,-0.012,-0.0119,-0.0119,-0.0192,0,-0.0012,0.0012,0.001,0.0048,0.0064,0.0061,0.0088,0.0093,0.0088,0.0091,0.0059,0.0062,0.0023,0.0012,-0.0017,-0.0075,-0.0105,-0.0083,-0.0173,-0.0176,-0.0199,-0.0186,-0.0118,-0.0194,-0.0195,-0.0195,-0.0195,0,0.0002,0.0021,0.006,0.0103,0.0111,0.0134,0.0172,0.0188,0.0188,0.0184,0.0174,0.0143,0.0106,0.0065,-0.0015,-0.0002,-0.0069,-0.012,-0.0125,-0.0158,-0.0202,-0.0219,-0.02,-0.0199,-0.0199,-0.0199,-0.0199,0,0.0016,0.0057,0.0093,0.0105,0.0146,0.0172,0.0195,0.0214,0.0235,0.0233,0.0233,0.0201,0.0161,0.0098,-0.0028,-0.0021,-0.013,-0.0136,-0.0212,-0.0216,-0.0193,-0.0195,-0.018,-0.0179,-0.0179,-0.0179,-0.0179,0,0.0035,0.0059,0.0104,0.0121,0.0174,0.0198,0.0249,0.0263,0.0293,0.0312,0.0274,0.0267,0.0164,0.0081,-0.0009,-0.0129,-0.0119,-0.0199,-0.0229,-0.0176,-0.0175,-0.0196,-0.0197,-0.0182,-0.0181,-0.0181,-0.018,0,0.0018,0.0051,0.0089,0.015,0.0175,0.0203,0.0272,0.0305,0.0332,0.0352,0.0348,0.0298,0.019,0.0077,-0.0056,-0.0119,-0.0222,-0.0267,-0.0217,-0.0245,-0.0296,-0.0294,-0.0333,-0.0335,-0.0336,-0.0337,-0.0337,0,0.0,0.0023,0.0093,0.0122,0.0146,0.0203,0.0244,0.0307,0.0349,0.0366,0.0372,0.028,0.0224,0.0029,-0.009,-0.0253,-0.0276,-0.0324,-0.0283,-0.0283,-0.0308,-0.0304,-0.0301,-0.0339,-0.034,-0.034,-0.034,0,-0.0033,-0.0007,0.0026,0.0099,0.0148,0.0215,0.0285,0.0324,0.0389,0.0402,0.039,0.0298,0.0168,0.0026,-0.012,-0.0231,-0.0283,-0.0335,-0.0333,-0.0294,-0.029,-0.0314,-0.0309,-0.0344,-0.0343,-0.0343,-0.0343,0,-0.0072,-0.0052,0.0011,0.0078,0.0138,0.0225,0.0264,0.0329,0.0382,0.042,0.0399,0.0281,0.0213,0.0034,-0.0094,-0.0214,-0.0224,-0.0238,-0.0241,-0.0238,-0.0189,-0.0169,-0.0204,0,0,0,0,0,-0.0099,-0.0052,-0.0004,0.0095,0.0156,0.0216,0.0297,0.0342,0.0399,0.0396,0.0417,0.0304,0.0127,0.0049,-0.0073,-0.0122,-0.0259,-0.0267,-0.0279,-0.0365,-0.036,-0.0321,0,0,0,0,0,0,-0.0107,-0.0066,-0.0008,0.0103,0.0173,0.0268,0.0322,0.0361,0.0383,0.0403,0.0308,0.0282,0.0101,0.0192,-0.0074,-0.011,-0.0131,-0.0347,-0.0349,-0.0367,-0.0363,-0.036,-0.0318,0,0,0,0,0]}]]